Weather in Smela

Ukraine / Cherkassi District     49°14′01″N   31°52′59″E
В апреле 2022 года жителям России запретили посещать сайт meteo.paraplan.net по решению Генеральной прокуратуры. Аудитория сайта уменьшилась в 10 раз. Владельцы сайта не видят смысла в поддержке погодного сервера в таких условиях. Сайт будет закрыт в октябре.
temp.,
°C
wind,
m/s
gust,
m/s
humid.,
%
clouds,
%
prec.,
mm/h
press.,
hPa
HPBL,
m
25 september, sun
sun2500:00+8w5128170 0.0 1016316
03:00+7w512825 0.0 1016286
06:00+6w512865 0.0 1016293
09:00+10w611665 0.0 1017509
12:00+15w710446 0.0 10171787
15:00+15w5950100 0.0 10161927
18:00+14sw2357100 0.0 101556
21:00+13w246258 0.0 101682
26 september, mon
mon2600:00+10ssw227166 0.0 101622
03:00+10ssw2267100 0.0 101511
06:00+10sse2265100 0.0 101418
09:00+12sse2361100 0.0 101476
12:00+17s4549100 0.0 1012660
15:00+21ssw5750100 0.4 10101759
18:00+17s496699 0.3 1009267
21:00+14ssw2389100 0.7 100951
27 september, tue
tue2700:00+14s3994100 0.0 1008246
03:00+14s3795100 0.1 1007186
06:00+14s2393100 0.4 100671
09:00+14sse4795100 2.1 1005368
12:00+14se51092100 3.6 1004577
15:00+14se51283100 3.9 1002497
18:00+14e4991100 0.3 1000221
21:00+13sse23940 2.1 99954
28 september, wed
wed2800:00+12wsw6119574 0.0 999425
03:00+13w61193100 0.0 1001573
06:00+12wsw499590 0.0 1000277
09:00+13w478198 0.0 1002827
12:00+16w57667 0.0 1003881
15:00+19w565417 0.0 10031382
18:00+16wnw256234 0.0 1005127
21:00+13wsw22705 0.0 100710
29 september, thu
thu2900:00+12nw12805 0.0 100811
03:00+11nne11895 0.0 101010
06:00+12e228898 0.0 101025
09:00+15se3675100 0.0 1011274
12:00+19sse5754100 0.0 1011780
15:00+22sse5748100 0.0 10111271
18:00+19se486094 0.0 1011140
21:00+18se51356100 0.0 1012309